www.pogodaiklimat.ru
ПОГОДА в Улугноре

Архив погоды в Улугноре (Андижанская область, Узбекистан)

Время
и дата
05:00 28.05
05:20 28.05
05:30 28.05
05:50 28.05
06:00 28.05
06:10 28.05
06:20 28.05
06:30 28.05
06:40 28.05
06:50 28.05
07:00 28.05
07:10 28.05
07:20 28.05
07:30 28.05
07:40 28.05
07:50 28.05
08:00 28.05
08:10 28.05
08:20 28.05
08:30 28.05
08:40 28.05
08:50 28.05
09:00 28.05
09:10 28.05
09:20 28.05
09:30 28.05
09:40 28.05
09:50 28.05
10:00 28.05
10:10 28.05
10:20 28.05
10:30 28.05
10:40 28.05
10:50 28.05
11:00 28.05
11:10 28.05
11:20 28.05
11:30 28.05
11:40 28.05
11:50 28.05
12:00 28.05
12:10 28.05
12:20 28.05
12:30 28.05
13:00 28.05
13:10 28.05
13:20 28.05
13:30 28.05
13:40 28.05
13:50 28.05
14:00 28.05
14:20 28.05
14:30 28.05
14:40 28.05
14:50 28.05
15:00 28.05
15:10 28.05
15:20 28.05
15:30 28.05
15:40 28.05
15:50 28.05
16:00 28.05
16:10 28.05
16:20 28.05
16:30 28.05
16:40 28.05
16:50 28.05
17:00 28.05
17:10 28.05
17:20 28.05
17:40 28.05
17:50 28.05
18:00 28.05
18:10 28.05
18:20 28.05
18:30 28.05
18:40 28.05
18:50 28.05
19:00 28.05
19:10 28.05
19:20 28.05
19:30 28.05
19:40 28.05
19:50 28.05
20:00 28.05
20:10 28.05
20:20 28.05
20:30 28.05
20:40 28.05
20:50 28.05
21:00 28.05
21:10 28.05
21:20 28.05
21:30 28.05
21:40 28.05
21:50 28.05
22:10 28.05
22:20 28.05
22:30 28.05
22:40 28.05
22:50 28.05
23:00 28.05
23:10 28.05
23:20 28.05
23:30 28.05
23:50 28.05
00:00 29.05
00:10 29.05
00:20 29.05
00:30 29.05
00:40 29.05
01:00 29.05
01:10 29.05
01:20 29.05
01:30 29.05
01:40 29.05
01:50 29.05
02:00 29.05
02:10 29.05
02:20 29.05
02:30 29.05
02:40 29.05
02:50 29.05
03:00 29.05
03:10 29.05
03:20 29.05
03:30 29.05
03:40 29.05
03:50 29.05
04:00 29.05
04:10 29.05
04:20 29.05
04:30 29.05
04:40 29.05
04:50 29.05
05:00 29.05
05:10 29.05
05:20 29.05
05:30 29.05
05:40 29.05
05:50 29.05
06:00 29.05
06:10 29.05
06:20 29.05
Ветер
(напр.,м/с)
Видимость Явления Солнечная радиация
(Вт/м2)
Т
(С)
Тd
(С)
f
(%)
Тe
(С)
Тes
(С)
Комфортность P
(гПа)
Po
(гПа)
Тmin
(С)
Tmax
(С)
R
(мм)
СВ 0.6
{1.0}
6.2 +12.6 +12.6 100 +13 +13 1014.1 965.8 +12.6 +12.6
СВ 0.7
{1.4}
22.1 +12.9 +12.9 100 +13 +14 1014.2 965.9 +12.9 +12.7
СВ 0.7
{1.1}
34.8 +13.3 +13.3 100 +14 +15 1014.3 966.0 +13.3 +12.9
СВ 0.5
{0.9}
73.2 +14.5 +14.5 100 +16 +18 1014.5 966.2 +14.5 +13.9
СВ 1.0
{1.9}
72.8 +15.3 +15.3 100 +16 +18 1014.6 966.3 +15.3 +14.5
СВ 1.1
{2.0}
91.0 +15.7 +15.7 100 +16 +18 1014.6 966.3 +15.7 +15.3
СВ 1.1
{2.3}
112.1 +16.2 +16.2 100 +17 +20 1014.5 966.2 +16.2 +15.7
СВ 1.1
{2.2}
217.9 +17.3 +17.3 100 +18 +23 1014.5 966.2 +17.3 +16.2
СВ 1.3
{2.5}
261.2 +18.2 +18.2 100 +19 +25 1014.5 966.2 +18.2 +17.3
В 1.6
{3.2}
272.7 +18.8 +18.8 100 +21 +27 комфорт 1014.5 966.2 +18.8 +18.2
СВ 1.7
{3.0}
193.6 +18.9 +18.9 100 +21 +25 комфорт 1014.5 966.2 +19.1 +18.8
СВ 1.3
{2.9}
162.7 +18.7 +18.7 100 +21 +25 комфорт 1014.5 966.2 +18.9 +18.7
СВ 1.1
{2.0}
224.0 +19.3 +19.3 100 +23 +28 комфорт 1014.6 966.3 +19.3 +18.7
СВ 1.1
{1.8}
315.4 +20.0 +19.4 96 +24 +31 комфорт 1014.7 966.4 +20.0 +19.3
СВ 1.0
{1.9}
223.4 +20.2 +19.7 97 +25 +30 комфорт 1014.7 966.4 +20.2 +20.0
СВ 0.9
{2.3}
311.4 +20.7 +19.1 90 +26 +33 душно 1014.7 966.4 +20.7 +20.2
СВ 1.1
{2.6}
450.3 +21.7 +19.7 88 +27 +37 душно 1014.7 966.4 +21.7 +20.7
СВ 1.4
{2.8}
451.6 +22.3 +16.9 71 +27 +37 душно 1014.7 966.4 +22.3 +21.7
В 1.6
{2.8}
521.6 +22.7 +17.1 71 +28 +39 душно 1014.6 966.3 +22.7 +22.3
В 1.3
{3.1}
549.0 +23.2 +16.1 64 +28 +40 душно 1014.6 966.3 +23.2 +22.7
В 1.7
{3.2}
582.9 +23.8 +16.8 65 +27 +40 жарко 1014.7 966.4 +23.8 +23.2
В 1.5
{2.9}
587.7 +24.2 +16.2 61 +28 +41 душно 1014.6 966.3 +24.2 +23.8
СВ 1.5
{2.8}
593.9 +24.4 +16.0 60 +28 +41 душно 1014.6 966.3 +24.4 +24.1
В 1.1
{2.5}
654.4 +25.1 +16.1 57 +28 +43 жарко 1014.5 966.2 +25.1 +24.4
ЮВ 1.5
{2.7}
689.8 +25.5 +16.0 56 +29 +44 душно 1014.4 966.1 +25.5 +24.9
В 1.1
{2.6}
706.8 +25.8 +17.5 60 +30 +46 душно 1014.3 966.0 +25.8 +25.4
В 1.3
{2.6}
695.6 +26.1 +15.8 53 +29 +45 жарко 1014.3 966.0 +26.2 +25.8
СВ 1.1
{2.6}
764.0 +26.4 +16.3 54 +30 +47 душно 1014.3 966.0 +26.6 +26.1
ЮВ 0.9
{2.4}
706.9 +26.7 +17.0 55 +30 +46 душно 1014.3 966.0 +26.8 +26.1
ЮВ 1.2
{2.6}
681.5 +27.2 +16.5 52 +31 +46 душно 1014.3 966.0 +27.1 +26.4
ЮВ 1.4
{3.2}
809.8 +27.3 +16.5 52 +31 +49 душно 1014.3 966.0 +27.4 +27.2
ЮВ 1.1
{2.4}
745.2 +27.5 +17.2 53 +31 +48 душно 1014.3 966.0 +27.5 +27.2
Ю 0.7
{2.5}
813.2 +27.9 +16.3 49 +31 +50 душно 1014.2 965.9 +27.9 +27.5
ЮЗ 0.9
{2.5}
829.0 +28.3 +16.8 50 +32 +51 опасность
солнечного
удара
1014.1 965.8 +28.5 +27.9
СВ 0.9
{2.3}
848.1 +28.5 +15.1 44 +31 +51 опасность
солнечного
удара
1014.0 965.7 +28.9 +28.3
С 1.4
{2.5}
768.9 +28.0 +15.9 48 +31 +48 душно 1013.9 965.6 +28.6 +27.9
СВ 0.8
{2.3}
843.1 +28.3 +15.1 45 +31 +51 опасность
солнечного
удара
1013.8 965.5 +28.5 +28.0
Ю 1.5
{3.0}
842.2 +28.4 +15.8 46 +31 +49 душно 1013.7 965.4 +28.6 +28.3
ЮВ 1.7
{3.1}
854.8 +28.2 +15.8 47 +31 +49 душно 1013.6 965.3 +28.6 +28.1
ЮЗ 1.5
{2.7}
897.6 +29.2 +15.3 43 +32 +52 опасность
солнечного
удара
1013.4 965.1 +29.2 +28.2
Ю 2.1
{3.8}
943.1 +29.3 +15.0 42 +32 +51 опасность
солнечного
удара
1013.3 965.0 +29.3 +29.1
Ю 1.2
{2.8}
796.0 +29.4 +15.2 42 +32 +50 душно 1013.1 964.9 +29.4 +29.2
ЮЗ 2.2
{5.0}
812.6 +29.4 +12.3 35 +30 +47 жарко 1013.0 964.8 +29.7 +29.4
ЮЗ 2.0
{4.2}
889.4 +29.6 +11.2 32 +30 +49 жарко 1013.0 964.8 +29.9 +29.3
ЮЗ 2.3
{4.9}
884.1 +30.0 +6.2 22 +29 +47 жарко 1012.9 964.7 +30.1 +29.7
ЮЗ 2.6
{4.4}
861.9 +30.2 +9.3 27 +30 +47 жарко 1012.9 964.7 +30.2 +29.9
ЮЗ 2.5
{4.7}
796.4 +30.2 +7.0 23 +29 +45 жарко 1012.9 964.7 +30.2 +29.9
З 2.5
{4.0}
850.9 +30.2 +9.9 29 +30 +47 жарко 1012.8 964.6 +30.2 +30.0
ЮЗ 2.5
{4.7}
835.9 +30.1 +9.2 27 +30 +47 жарко 1012.7 964.5 +30.3 +30.1
ЮЗ 2.5
{4.9}
817.7 +30.3 +12.4 33 +31 +47 жарко 1012.5 964.3 +30.4 +30.1
З 3.0
{6.1}
802.1 +30.1 +12.6 34 +31 +46 жарко 1012.4 964.2 +30.4 +30.0
З 2.6
{5.5}
771.5 +30.2 +11.7 32 +31 +46 жарко 1012.3 964.1 +30.5 +30.2
З 2.5
{4.5}
659.0 +30.4 +12.7 34 +31 +44 жарко 1012.3 964.1 +30.4 +30.1
З 2.6
{4.9}
733.2 +30.5 +12.8 34 +32 +46 жарко 1012.2 964.0 +30.7 +30.4
З 2.8
{5.1}
711.4 +30.7 +12.2 32 +31 +45 жарко 1012.2 964.0 +30.8 +30.5
ЮЗ 3.1
{5.0}
687.9 +30.8 +12.6 33 +32 +45 жарко 1012.0 963.8 +30.9 +30.6
З 2.9
{5.3}
662.3 +31.1 +11.5 30 +31 +44 жарко 1011.9 963.7 +31.1 +30.6
З 3.1
{5.5}
643.7 +30.8 +12.4 32 +31 +43 жарко 1011.8 963.6 +31.1 +30.7
ЮЗ 3.1
{6.2}
622.8 +31.0 +10.3 28 +31 +43 жарко 1011.8 963.6 +31.1 +30.8
ЮЗ 3.0
{5.7}
603.9 +30.9 +12.0 31 +31 +42 жарко 1011.8 963.6 +31.0 +30.8
ЮЗ 3.0
{6.2}
580.0 +31.2 +11.9 31 +32 +43 жарко 1011.7 963.5 +31.2 +30.9
ЮЗ 3.5
{6.4}
548.2 +30.9 +12.4 32 +32 +42 жарко 1011.7 963.5 +31.2 +30.9
ЮЗ 3.3
{6.2}
523.7 +30.9 +11.5 30 +31 +40 жарко 1011.7 963.5 +30.9 +30.7
ЮЗ 2.8
{5.9}
427.6 +30.5 +11.9 32 +31 +39 жарко 1011.7 963.5 +31.2 +30.4
ЮЗ 3.3
{6.5}
498.5 +30.7 +13.0 34 +32 +41 жарко 1011.7 963.5 +30.8 +30.5
ЮЗ 4.1
{6.6}
409.4 +30.4 +13.3 35 +32 +39 жарко 1011.7 963.5 +30.8 +30.4
ЮЗ 3.4
{5.6}
139.4 +29.6 +13.2 36 +31 +33 жарко 1011.7 963.5 +30.4 +29.7
ЮЗ 3.6
{6.7}
150.5 +29.2 +13.4 38 +31 +34 жарко 1011.7 963.5 +29.6 +29.2
ЮЗ 2.9
{8.1}
121.2 +29.0 +13.7 39 +31 +33 жарко 1011.7 963.5 +29.2 +29.0
З 3.1
{6.8}
96.2 +28.6 +13.3 39 +30 +32 жарко 1011.8 963.6 +29.0 +28.6
ЮЗ 2.5
{5.1}
66.1 +28.0 +13.6 41 +30 +31 жарко 1012.0 963.8 +28.3 +28.0
ЮЗ 2.0
{3.6}
59.8 +27.7 +13.7 42 +30 +31 жарко 1012.1 963.9 +28.0 +27.7
ЮЗ 3.9
{7.6}
137.9 +28.2 +11.0 34 +29 +31 жарко 1012.1 963.9 +28.2 +27.6
ЮЗ 3.7
{7.5}
176.4 +28.3 +11.7 36 +29 +32 жарко 1012.0 963.8 +28.5 +28.2
ЮЗ 3.8
{8.7}
64.4 +27.7 +10.3 34 +28 +29 жарко 1012.0 963.8 +28.3 +27.7
ЮЗ 3.9
{8.3}
39.1 +27.3 +10.3 35 +28 +29 жарко 1012.1 963.9 +27.7 +27.3
ЮЗ 3.0
{6.2}
32.1 +26.9 +11.6 38 +28 +29 жарко 1012.2 964.0 +27.3 +26.9
ЮЗ 3.5
{7.5}
22.1 +26.8 +11.2 38 +28 +28 жарко 1012.3 964.1 +26.9 +26.8
ЮЗ 4.3
{8.9}
24.5 +26.9 +9.9 34 +27 +27 жарко 1012.3 964.1 +27.0 +26.8
З 4.4
{9.0}
22.8 +26.9 +9.9 34 +27 +27 жарко 1012.3 964.1 +27.1 +26.9
ЮЗ 5.3
{10.3}
8.8 +26.9 +9.7 34 +27 +27 жарко 1012.4 964.2 +27.0 +26.9
З 5.1
{9.5}
4.4 +26.8 +9.8 34 +27 +27 жарко 1012.7 964.5 +26.9 +26.8
ЮЗ 4.9
{8.8}
0.8 +26.6 +9.4 34 +27 +27 жарко 1012.7 964.5 +26.8 +26.6
ЮЗ 4.8
{9.4}
+26.6 +8.7 32 +27 +27 жарко 1012.8 964.6 +26.6 +26.5
ЮЗ 4.2
{8.8}
+26.4 +9.6 35 +27 +27 жарко 1012.8 964.6 +26.6 +26.4
ЮЗ 3.7
{7.6}
+26.0 +9.8 36 +27 +27 жарко 1012.8 964.6 +26.4 +26.0
ЮЗ 4.6
{10.1}
+26.1 +9.0 34 +26 +26 жарко 1012.9 964.7 +26.2 +26.0
ЮЗ 4.4
{10.1}
+25.8 +9.3 35 +26 +26 жарко 1013.0 964.8 +26.1 +25.9
ЮЗ 4.8
{10.4}
+25.7 +8.6 34 +26 +26 жарко 1013.0 964.8 +25.8 +25.6
ЮЗ 5.2
{10.3}
+25.6 +8.4 34 +26 +26 жарко 1013.1 964.9 +25.7 +25.6
З 4.9
{8.1}
+25.4 +8.5 34 +26 +26 жарко 1013.3 965.0 +25.6 +25.4
ЮЗ 4.5
{8.1}
+25.1 +8.5 35 +26 +26 жарко 1013.3 965.0 +25.4 +25.1
ЮЗ 4.3
{9.3}
+25.0 +8.4 35 +25 +25 комфорт 1013.4 965.1 +25.1 +25.0
ЮЗ 4.4
{8.4}
+24.8 +8.8 36 +25 +25 комфорт 1013.3 965.0 +25.0 +24.8
ЮЗ 3.6
{7.7}
+24.4 +9.4 39 +25 +25 комфорт 1013.4 965.1 +24.8 +24.4
З 4.7
{9.0}
+24.4 +8.3 36 +25 +25 комфорт 1013.5 965.2 +24.4 +24.3
З 4.4
{9.0}
+24.3 +7.6 34 +25 +25 комфорт 1013.4 965.1 +24.3 +24.2
З 4.4
{8.2}
+24.2 +7.5 34 +24 +24 комфорт 1013.4 965.1 +24.3 +24.1
З 4.9
{8.8}
+24.1 +7.6 35 +24 +24 комфорт 1013.3 965.0 +24.2 +24.1
ЮЗ 3.7
{6.8}
+23.6 +8.9 39 +24 +24 комфорт 1013.3 965.0 +24.1 +23.6
ЮЗ 3.2
{6.3}
+23.2 +9.1 41 +25 +25 комфорт 1013.4 965.1 +23.6 +23.2
ЮЗ 3.5
{6.4}
+23.1 +9.3 41 +25 +25 комфорт 1013.4 965.1 +23.2 +23.1
ЮЗ 3.3
{6.4}
+22.9 +9.4 42 +24 +24 комфорт 1013.5 965.2 +23.1 +22.9
ЮЗ 2.5
{5.3}
+22.5 +9.5 44 +24 +24 комфорт 1013.6 965.3 +22.9 +22.5
ЮЗ 2.4
{4.9}
+22.0 +8.4 42 +23 +23 комфорт 1013.6 965.3 +22.5 +22.0
Ю 2.0
{3.1}
+20.5 +8.5 46 +22 +22 комфорт 1013.6 965.3 +21.2 +20.5
Ю 2.3
{3.8}
+20.2 +8.1 46 +22 +22 комфорт 1013.5 965.2 +20.5 +20.2
ЮЗ 2.5
{4.8}
+20.2 +8.4 47 +22 +22 комфорт 1013.4 965.1 +20.2 +20.1
ЮЗ 2.7
{5.2}
+20.3 +7.7 44 +22 +22 комфорт 1013.4 965.1 +20.3 +20.1
ЮЗ 2.7
{5.3}
+20.7 +7.6 43 +22 +22 комфорт 1013.4 965.1 +20.7 +20.3
ЮЗ 2.7
{4.8}
+20.8 +7.3 42 +22 +22 комфорт 1013.3 965.0 +20.9 +20.7
ЮЗ 2.8
{5.1}
+20.7 +6.9 41 +22 +22 комфорт 1013.2 964.9 +20.7 +20.6
ЮЗ 2.4
{5.0}
+20.3 +7.3 43 +22 +22 комфорт 1013.3 965.0 +20.7 +20.4
З 2.3
{4.7}
+20.0 +7.4 44 +21 +21 комфорт 1013.4 965.1 +20.3 +20.0
ЮЗ 2.2
{4.1}
+19.6 +7.2 45 +21 +21 комфорт 1013.4 965.1 +20.0 +19.6
Ю 2.5
{4.1}
+19.3 +7.4 46 +20 +20 1013.3 965.0 +19.6 +19.2
Ю 2.0
{3.7}
+19.0 +7.3 47 +20 +20 1013.3 965.0 +19.3 +19.0
Ю 2.0
{4.5}
+18.8 +7.3 47 +20 +20 1013.2 964.9 +19.0 +18.7
ЮЗ 2.4
{4.6}
+18.8 +7.7 49 +20 +20 1013.2 964.9 +18.8 +18.7
ЮЗ 3.5
{7.8}
+20.1 +8.6 48 +21 +21 комфорт 1013.3 965.0 +20.1 +18.8
ЮЗ 3.8
{7.4}
+20.6 +8.4 46 +22 +22 комфорт 1013.3 965.0 +20.6 +20.1
З 3.1
{5.9}
+20.5 +8.8 47 +22 +22 комфорт 1013.4 965.1 +20.7 +20.5
З 2.4
{5.0}
+20.2 +8.8 48 +22 +22 комфорт 1013.5 965.2 +20.5 +20.2
З 2.5
{4.4}
+20.0 +8.8 49 +22 +22 комфорт 1013.5 965.2 +20.2 +20.0
З 3.4
{6.6}
+19.8 +9.1 50 +21 +21 комфорт 1013.5 965.2 +20.0 +19.7
З 3.3
{5.6}
+19.5 +9.3 51 +21 +21 комфорт 1013.6 965.3 +19.8 +19.5
З 2.4
{5.2}
+19.2 +9.7 54 +20 +20 1013.7 965.4 +19.5 +19.2
З 1.9
{4.2}
+18.7 +9.9 56 +20 +20 1013.8 965.5 +19.2 +18.7
З 1.6
{3.4}
+18.4 +10.0 58 +19 +19 1013.9 965.6 +18.8 +18.5
Ю 0.9
{2.1}
+17.5 +10.6 64 +19 +19 1014.0 965.7 +18.4 +17.5
ЮВ 0.7
{1.3}
+16.5 +10.9 70 +18 +18 1014.1 965.8 +17.5 +16.5
ЮВ 0.4
{1.0}
+15.7 +11.3 75 +17 +17 1014.2 965.9 +16.5 +15.7
С 0.4
{1.1}
+15.0 +12.2 83 +16 +16 1014.3 966.0 +15.7 +15.0
З 0.4
{0.9}
+14.3 +12.2 87 +16 +16 1014.4 966.1 +15.0 +14.3
СЗ 0.8
{1.5}
1.1 +14.1 +13.0 93 +15 +15 1014.4 966.1 +14.3 +14.1
СЗ 1.1
{2.7}
5.4 +14.0 +13.5 96 +14 +14 1014.5 966.2 +14.2 +13.9
З 0.7
{1.8}
12.4 +14.0 +13.9 99 +15 +15 1014.5 966.2 +14.4 +14.0
З 0.7
{1.3}
23.2 +14.0 +13.9 99 +15 +16 1014.7 966.4 +14.1 +13.9
СЗ 0.8
{1.9}
45.5 +14.6 +14.6 100 +15 +16 1014.8 966.5 +14.6 +14.0
СЗ 1.0
{2.3}
66.2 +15.7 +14.8 94 +16 +18 1014.7 966.4 +15.8 +14.6
ЮВ 1.2
{2.3}
89.2 +16.0 +14.9 93 +16 +18 1014.9 966.6 +15.9 +15.7
С 0.5
{0.8}
124.5 +16.7 +15.5 93 +18 +21 1014.9 966.6 +16.7 +16.0
Ю 1.2
{2.2}
174.6 +17.7 +15.9 89 +19 +23 1015.0 966.7 +17.7 +16.7
Ю 1.5
{2.7}
145.9 +18.3 +15.9 86 +20 +23 1015.0 966.7 +18.3 +17.7
Местоположение метеостанции Улугнор (Андижанская область, Узбекистан): широта 40.70 долгота 71.61 высота над уровнем моря 0 м.
В архиве по умолчанию представлена погода в Улугноре за последние 1-2 суток. Обновление информации о фактической погоде в базе происходит ежечасно! Архивные данные за месяц целиком и за предыдущие месяцы Вы можете получить, выбрав интересующий диапазон дат из раскрывающегося списка и нажав кнопку "Ввод!".
*Определитесь, кто Вы:
Внимание! Время в таблицах - местное (без учета летнего времени). Для получения всемирного времени необходимо вычесть поправку, которая равна 5 ч.
Смотрите также архив погоды на ближайших метеорологических станциях:
Партнеры нашего сайта:      
Пояснения к столбцам:
  • Ветер - указаны скорость ветра в м/с - средняя за 10 мин, порывы в срок и между сроками (в фигурных скобках) и направление, откуда дует ветер: С - северный,
  • СВ - северо-восточный, В - восточный, ЮВ - юго-восточный, Ю - южный, ЮЗ - юго-западный, З - западный, СЗ - северо-западный.
  • Видимость - горизонтальная дальность видимости в метрах или километрах. При видимости от 1 до 10 км при отсутствии осадков обычно наблюдается дымка, при ухудшении видимости до 1 км и менее - туман. В сухую погоду видимость может ухудшаться дымом, пылью или мглою.
  • Явления - указаны атмосферные явления, наблюдавшиеся в срок или в последний час перед сроком.
  • Солнечная радиация - мощность потока солнечного излучения на поверхность земли и предметов в Вт/м2.
  • T - Температура воздуха - температура, измеренная на высоте 2 м над землей.
  • Td - Температура точки росы - температура, при понижении до которой содержащийся в воздухе водяной пар достигнет насыщения.
  • f - Относительная влажность воздуха - влажноcть воздуха, измеренная на высоте 2 м над землей.
  • Te - Эффективная температура - температура, которую ощущает одетый по сезону человек в тени. Характеристика душности погоды. При расчете учитывается влияние влажности воздуха и скорости ветра на теплоощущения человека.
  • Tes - Эффективная температура на солнце - температура, которую ощущает человек, с поправкой на солнечный нагрев. Характеристика знойности погоды. Зависит от высоты солнца над горизонтом, облачности и скорости ветра. Ночью, в пасмурную погоду, а также при ветре 12 м/с и более поправка равна нулю.
  • P - Атмосферное давление - приведенное к уровню моря атмосферное давление.
  • Po - Атмосферное давление - измеренное на уровне метеостанции атмосферное давление.
  • Tmin - Минимальная температура - минимум температуры воздуха на высоте 2 м над землей.
  • Tmax - Максимальная температура - максимум температуры воздуха на высоте 2 м над землей.
  • R - Количество осадков - Количество выпавших осадков за период времени, мм. При наведении курсора мыши на число - период времени, за который выпало указанное количество осадков.